Waukesha, WI

10:02 PM CDT on June 25, 2017 (GMT -0500)
Waukesha County

Weather History for KUES - September, 2013

Change the Weather History Date:

Monday, September 23, 2013

  Actual Average Record
Temperature  
Mean Temperature 50 °F -  
Max Temperature 62 °F 65 °F 83 °F (2010)
Min Temperature 37 °F 45 °F 29 °F (1974)
Degree Days  
Heating Degree Days 16    
Moisture  
Dew Point 43 °F    
Average Humidity 89    
Maximum Humidity 100    
Minimum Humidity 59    
Precipitation  
Precipitation 0.00 in - - ()
Sea Level Pressure  
Sea Level Pressure 30.10 in    
Wind  
Wind Speed 1 mph (East)    
Max Wind Speed 10 mph    
Max Gust Speed -    
Visibility 10 miles    
Events      
Averages and records for this station are not official NWS values.
T = Trace of Precipitation, MM = Missing Value Source: NWS Daily Summary

Daily Weather History Graph

Daily Weather History Graph

Search for Another Location

Airport or City:

Trip Planner

Search our weather history database for the weather conditions in past years. The results will help you decide how hot, cold, wet, or windy it might be!

Date:

Astronomy

Sep. 23, 2013 Rise Set
Actual Time 6:41 AM CDT 6:48 PM CDT
Civil Twilight 6:13 AM CDT 7:16 PM CDT
Nautical Twilight 5:40 AM CDT 7:49 PM CDT
Astronomical Twilight 5:06 AM CDT 8:23 PM CDT
Moon 9:12 PM CDT (9/23) 11:07 AM CDT (9/23)
Length of Visible Light 13h 03m
Length of Day
12h 06m
Waning Gibbous, 81% of the Moon is Illuminated
Sep 23
Waning Gibbous
Sep 26
Last Quarter
Oct 4
New
Oct 11
First Quarter
Oct 18
Full

Hourly Weather History & Observations

Time (CDT) Temp. Dew Point Humidity Pressure Visibility Wind Dir Wind Speed Gust Speed Precip Events Conditions
12:15 AM 41.0 °F 41.0 °F 100% 30.09 in 10.0 mi Calm Calm - N/A   Clear
12:35 AM 41.0 °F 41.0 °F 100% 30.09 in 10.0 mi Calm Calm - N/A   Clear
12:55 AM 41.0 °F 41.0 °F 100% 30.09 in 10.0 mi Calm Calm - N/A   Clear
1:15 AM 39.2 °F 37.4 °F 93% 30.09 in 10.0 mi Calm Calm - N/A   Clear
1:35 AM 41.0 °F 39.2 °F 93% 30.09 in 10.0 mi Calm Calm - N/A   Clear
1:55 AM 42.8 °F 41.0 °F 93% 30.09 in 10.0 mi Calm Calm - N/A   Clear
2:15 AM 41.0 °F 41.0 °F 100% 30.09 in 10.0 mi Calm Calm - N/A   Clear
2:35 AM 41.0 °F 41.0 °F 100% 30.09 in 10.0 mi Calm Calm - N/A   Clear
2:55 AM 41.0 °F 41.0 °F 100% 30.09 in 10.0 mi Calm Calm - N/A   Clear
3:15 AM 39.2 °F 37.4 °F 93% 30.09 in 10.0 mi Calm Calm - N/A   Clear
3:35 AM 39.2 °F 39.2 °F 100% 30.09 in 10.0 mi Calm Calm - N/A   Clear
3:55 AM 39.2 °F 39.2 °F 100% 30.10 in 7.0 mi Calm Calm - N/A   Clear
4:15 AM 37.4 °F 37.4 °F 100% 30.10 in 7.0 mi Calm Calm - N/A   Clear
4:35 AM 39.2 °F 39.2 °F 100% 30.10 in 10.0 mi Calm Calm - N/A   Clear
4:55 AM 39.2 °F 37.4 °F 93% 30.10 in 10.0 mi Calm Calm - N/A   Clear
5:15 AM 39.2 °F 37.4 °F 93% 30.10 in 10.0 mi Calm Calm - N/A   Clear
5:35 AM 39.2 °F 39.2 °F 100% 30.11 in 10.0 mi Calm Calm - N/A   Clear
5:45 AM 39.2 °F 39.2 °F 100% 30.11 in 10.0 mi Calm Calm - N/A   Clear
6:45 AM 39.2 °F 39.2 °F 100% 30.12 in 10.0 mi Calm Calm - N/A   Clear
7:45 AM 42.8 °F 42.8 °F 100% 30.13 in 10.0 mi Calm Calm - N/A   Clear
8:45 AM 53.6 °F 48.2 °F 82% 30.13 in 10.0 mi ENE 8.1 mph - N/A   Clear
9:45 AM 55.4 °F 46.4 °F 72% 30.13 in 10.0 mi East 8.1 mph - N/A   Scattered Clouds
10:45 AM 57.2 °F 46.4 °F 67% 30.15 in 10.0 mi East 6.9 mph - N/A   Mostly Cloudy
11:45 AM 59.0 °F 46.4 °F 63% 30.14 in 10.0 mi ESE 4.6 mph - N/A   Mostly Cloudy
12:45 PM 60.8 °F 48.2 °F 63% 30.14 in 10.0 mi ESE 4.6 mph - N/A   Scattered Clouds
1:45 PM 62.6 °F 48.2 °F 59% 30.10 in 10.0 mi East 6.9 mph - N/A   Scattered Clouds
2:45 PM 60.8 °F 48.2 °F 63% 30.10 in 10.0 mi ESE 6.9 mph - N/A   Partly Cloudy
3:45 PM 60.8 °F 46.4 °F 59% 30.10 in 10.0 mi East 6.9 mph - N/A   Partly Cloudy
4:45 PM 59.0 °F 46.4 °F 63% 30.08 in 10.0 mi East 9.2 mph - N/A   Scattered Clouds
5:45 PM 57.2 °F 46.4 °F 67% 30.08 in 10.0 mi ESE 10.4 mph - N/A   Partly Cloudy
6:45 PM 53.6 °F 46.4 °F 77% 30.09 in 10.0 mi East 6.9 mph - N/A   Partly Cloudy
7:45 PM 50.0 °F 46.4 °F 87% 30.09 in 10.0 mi East 6.9 mph - N/A   Partly Cloudy
8:45 PM 50.0 °F 46.4 °F 87% 30.09 in 10.0 mi Calm Calm - N/A   Partly Cloudy
9:15 PM 46.4 °F 44.6 °F 93% 30.09 in 10.0 mi Calm Calm - N/A   Clear
9:35 PM 46.4 °F 44.6 °F 93% 30.09 in 10.0 mi Calm Calm - N/A   Clear
9:55 PM 46.4 °F 44.6 °F 93% 30.09 in 10.0 mi Calm Calm - N/A   Clear
10:15 PM 44.6 °F 42.8 °F 93% 30.09 in 10.0 mi Calm Calm - N/A   Clear
10:35 PM 44.6 °F 44.6 °F 100% 30.09 in 10.0 mi Calm Calm - N/A   Clear
10:55 PM 44.6 °F 42.8 °F 93% 30.08 in 10.0 mi Calm Calm - N/A   Clear
11:15 PM 44.6 °F 44.6 °F 100% 30.08 in 10.0 mi Calm Calm - N/A   Clear
11:35 PM 44.6 °F 44.6 °F 100% 30.07 in 10.0 mi Calm Calm - N/A   Clear
11:55 PM 44.6 °F 44.6 °F 100% 30.07 in 7.0 mi Calm Calm - N/A   Clear